sat.trackr.live / text

‹ back to catalog

STARLINK-35089

NORAD 65484 · 2025-195AC

PAYLOAD ACTIVE UNKNOWN

§ Identity

Operator
Country
US
Launch date
2025-09-03
Launch site
AFETR
Launch vehicle
Mass (kg)
RCS (m²)

Purposes: comms

External: N2YO · Heavens-Above · Gunter

§ Orbital elements

Epoch: 2026-05-24T14:46:20.674848Z

Period
93.85 min
Inclination
53.1558°
Eccentricity
0.0001324
Mean motion
15.34413390 rev/d
Perigee alt
461.8 km
Apogee alt
463.6 km
Semi-major
6,840.8 km
B*
7.7787e-4
RAAN
265.1056°
Arg perigee
88.9363°
Mean anomaly
271.1792°
Rev number
4,160

§ Raw data

STARLINK-350891 65484U 25195AC  26144.61551707  .00026008  00000+0  77787-3 0  99922 65484  53.1558 265.1056 0001324  88.9363 271.1792 15.34413390 41601

JSON: /api/v1/satellites/65484 · /tle

For live sub-satellite position, see the globe view (requires WebGL).

§ Visibility from observer

Set your observer location to see the next 7 days of passes ≥ 10°. The values pass through the URL so the page stays shareable.

No JS? Fill the form by hand. The geolocation button needs JavaScript.